Metropolis, IL

6:18 PM CDT on April 28, 2017 (GMT -0500)
Metropolis

Weather History for KM30 - March, 2013

Change the Weather History Date:

Saturday, March 9, 2013

  Actual Average (KPAH) Record (KPAH)
Temperature  
Mean Temperature 55 °F -  
Max Temperature 68 °F 56 °F 78 °F (1974)
Min Temperature 42 °F 35 °F 10 °F (1943)
Degree Days  
Heating Degree Days 10    
Growing Degree Days 5 (Base 50)    
Moisture  
Dew Point 31 °F    
Average Humidity 45    
Maximum Humidity 65    
Minimum Humidity 26    
Precipitation  
Precipitation 0.00 in - - ()
Sea Level Pressure  
Sea Level Pressure 30.08 in    
Wind  
Wind Speed 6 mph (SE)    
Max Wind Speed 12 mph    
Max Gust Speed 20 mph    
Visibility 10 miles    
Events      
Averages and records for this station are not official NWS values.
T = Trace of Precipitation, MM = Missing Value Source: NWS Daily Summary

Daily Weather History Graph

Daily Weather History Graph

Search for Another Location

Airport or City:

Trip Planner

Search our weather history database for the weather conditions in past years. The results will help you decide how hot, cold, wet, or windy it might be!

Date:

Astronomy

Mar. 09, 2013 Rise Set
Actual Time 6:14 AM CST 5:56 PM CST
Civil Twilight 5:48 AM CST 6:22 PM CST
Nautical Twilight 5:18 AM CST 6:53 PM CST
Astronomical Twilight 4:48 AM CST 7:23 PM CST
Moon 4:36 AM CST (3/9) 4:00 PM CST (3/9)
Length of Visible Light 12h 34m
Length of Day
11h 42m
Waning Crescent, 5% of the Moon is Illuminated
Mar 9
Waning Crescent
Mar 11
New
Mar 19
First Quarter
Mar 27
Full
Apr 2
Last Quarter

Hourly Weather History & Observations

Time (CST) Temp. Windchill Dew Point Humidity Pressure Visibility Wind Dir Wind Speed Gust Speed Precip Events Conditions
12:15 AM 45.0 °F 41.8 °F 28.4 °F 52% 30.24 in 10.0 mi East 5.8 mph - N/A   Scattered Clouds
12:35 AM 44.8 °F 40.4 °F 29.1 °F 54% 30.21 in 10.0 mi East 8.1 mph - N/A   Clear
12:55 AM 44.6 °F 41.4 °F 28.4 °F 53% 30.22 in 10.0 mi SE 5.8 mph - N/A   Clear
1:15 AM 44.1 °F 41.5 °F 28.4 °F 54% 30.22 in 10.0 mi East 4.6 mph - N/A   Clear
1:35 AM 43.7 °F 41.1 °F 28.8 °F 56% 30.21 in 10.0 mi East 4.6 mph - N/A   Clear
1:55 AM 43.2 °F 40.5 °F 29.7 °F 59% 30.20 in 10.0 mi East 4.6 mph - N/A   Clear
2:15 AM 43.5 °F 41.9 °F 29.5 °F 58% 30.19 in 10.0 mi East 3.5 mph - N/A   Clear
2:35 AM 43.3 °F 40.7 °F 30.0 °F 59% 30.18 in 10.0 mi East 4.6 mph - N/A   Clear
2:55 AM 43.0 °F 41.3 °F 30.4 °F 61% 30.19 in 10.0 mi ESE 3.5 mph - N/A   Clear
3:15 AM 43.0 °F 41.3 °F 30.4 °F 61% 30.19 in 10.0 mi East 3.5 mph - N/A   Clear
3:35 AM 42.8 °F 40.1 °F 30.9 °F 63% 30.19 in 10.0 mi ESE 4.6 mph - N/A   Clear
3:55 AM 43.0 °F 40.3 °F 30.9 °F 62% 30.18 in 10.0 mi East 4.6 mph - N/A   Clear
4:15 AM 42.8 °F 40.1 °F 31.3 °F 64% 30.19 in 10.0 mi East 4.6 mph - N/A   Clear
4:35 AM 43.2 °F 39.0 °F 30.7 °F 62% 30.17 in 10.0 mi ESE 6.9 mph - N/A   Clear
4:55 AM 43.3 °F 39.2 °F 30.7 °F 61% 30.17 in 10.0 mi East 6.9 mph - N/A   Clear
5:15 AM 43.2 °F 41.5 °F 30.9 °F 62% 30.17 in 10.0 mi East 3.5 mph - N/A   Clear
5:35 AM 42.8 °F 40.1 °F 31.3 °F 64% 30.17 in 10.0 mi East 4.6 mph - N/A   Clear
5:55 AM 42.8 °F 40.1 °F 30.9 °F 63% 30.17 in 10.0 mi East 4.6 mph - N/A   Clear
6:15 AM 42.8 °F 40.1 °F 31.1 °F 63% 30.17 in 10.0 mi ESE 4.6 mph - N/A   Clear
6:35 AM 42.8 °F 41.1 °F 31.6 °F 65% 30.17 in 10.0 mi East 3.5 mph - N/A   Scattered Clouds
6:55 AM 43.2 °F 40.5 °F 31.8 °F 64% 30.18 in 10.0 mi ESE 4.6 mph - N/A   Mostly Cloudy
7:15 AM 43.9 °F 41.3 °F 31.6 °F 62% 30.18 in 10.0 mi ESE 4.6 mph - N/A   Overcast
7:35 AM 44.6 °F 40.7 °F 31.3 °F 60% 30.18 in 10.0 mi ESE 6.9 mph - N/A   Overcast
7:55 AM 45.7 °F 42.7 °F 31.5 °F 58% 30.18 in 10.0 mi ESE 5.8 mph - N/A   Overcast
8:15 AM 47.3 °F - 31.1 °F 53% 30.18 in 10.0 mi SE 5.8 mph - N/A   Overcast
8:35 AM 47.1 °F - 31.1 °F 54% 30.19 in 10.0 mi SE 4.6 mph - N/A   Overcast
8:55 AM 47.1 °F - 30.9 °F 53% 30.18 in 10.0 mi SE 4.6 mph - N/A   Overcast
9:15 AM 47.8 °F - 30.9 °F 52% 30.17 in 10.0 mi ESE 4.6 mph - N/A   Overcast
9:35 AM 48.4 °F - 31.1 °F 51% 30.16 in 10.0 mi ESE 4.6 mph - N/A   Overcast
9:55 AM 49.1 °F - 30.9 °F 50% 30.16 in 10.0 mi SE 6.9 mph - N/A   Overcast
10:15 AM 50.2 °F - 31.5 °F 49% 30.16 in 10.0 mi ESE 5.8 mph - N/A   Mostly Cloudy
10:35 AM 52.3 °F - 31.8 °F 46% 30.14 in 10.0 mi ESE 8.1 mph - N/A   Mostly Cloudy
10:55 AM 53.1 °F - 32.0 °F 45% 30.13 in 10.0 mi ESE 8.1 mph - N/A   Overcast
11:15 AM 54.7 °F - 31.8 °F 42% 30.12 in 10.0 mi ESE 6.9 mph - N/A   Mostly Cloudy
11:35 AM 55.9 °F - 32.0 °F 40% 30.12 in 10.0 mi ESE 8.1 mph - N/A   Scattered Clouds
11:55 AM 58.5 °F - 32.2 °F 37% 30.11 in 10.0 mi SE 5.8 mph - N/A   Scattered Clouds
12:15 PM 60.3 °F - 31.8 °F 34% 30.10 in 10.0 mi SE 8.1 mph - N/A   Clear
12:35 PM 60.6 °F - 30.2 °F 32% 30.08 in 10.0 mi SSE 8.1 mph - N/A   Scattered Clouds
12:55 PM 61.5 °F - 30.7 °F 31% 30.07 in 10.0 mi SSE 6.9 mph - N/A   Clear
1:15 PM 62.8 °F - 31.6 °F 31% 30.06 in 10.0 mi SSE 8.1 mph - N/A   Clear
1:35 PM 64.9 °F - 32.2 °F 29% 30.04 in 10.0 mi South 9.2 mph - N/A   Clear
1:55 PM 65.7 °F - 32.9 °F 30% 30.03 in 10.0 mi South 11.5 mph - N/A   Clear
2:15 PM 66.7 °F - 33.3 °F 29% 30.02 in 10.0 mi SSE 10.4 mph 16.1 mph N/A   Clear
2:35 PM 66.7 °F - 33.1 °F 29% 30.01 in 10.0 mi SSE 9.2 mph 17.3 mph N/A   Clear
2:55 PM 67.6 °F - 32.2 °F 27% 30.01 in 10.0 mi SSE 10.4 mph - N/A   Clear
3:15 PM 67.3 °F - 31.6 °F 27% 30.00 in 10.0 mi SE 10.4 mph 17.3 mph N/A   Clear
3:35 PM 68.0 °F - 32.2 °F 26% 29.98 in 10.0 mi SSE 10.4 mph - N/A   Clear
3:55 PM 67.6 °F - 32.2 °F 27% 29.98 in 10.0 mi SSE 9.2 mph 16.1 mph N/A   Clear
4:15 PM 68.0 °F - 32.5 °F 27% 29.98 in 10.0 mi SSE 6.9 mph - N/A   Clear
4:35 PM 66.6 °F - 30.9 °F 26% 29.99 in 10.0 mi South 10.4 mph 19.6 mph N/A   Scattered Clouds
4:55 PM 65.5 °F - 31.8 °F 28% 29.98 in 10.0 mi South 8.1 mph - N/A   Overcast
5:15 PM 65.3 °F - 32.0 °F 29% 29.98 in 10.0 mi SSE 6.9 mph - N/A   Overcast
5:35 PM 64.4 °F - 31.6 °F 29% 29.98 in 10.0 mi SSE 6.9 mph - N/A   Mostly Cloudy
5:55 PM 63.7 °F - 31.5 °F 30% 29.98 in 10.0 mi SSE 4.6 mph - N/A   Mostly Cloudy
6:15 PM 62.8 °F - 31.5 °F 31% 29.97 in 10.0 mi SSE 4.6 mph - N/A   Mostly Cloudy
6:35 PM 61.3 °F - 30.9 °F 32% 29.97 in 10.0 mi SSE 4.6 mph - N/A   Scattered Clouds
6:55 PM 59.7 °F - 31.1 °F 34% 29.98 in 10.0 mi SE 3.5 mph - N/A   Scattered Clouds
7:15 PM 58.3 °F - 31.5 °F 36% 29.98 in 10.0 mi Calm Calm - N/A   Clear
7:35 PM 56.3 °F - 31.6 °F 39% 29.97 in 10.0 mi ESE 4.6 mph - N/A   Clear
7:55 PM 55.2 °F - 32.0 °F 41% 29.97 in 10.0 mi ESE 3.5 mph - N/A   Clear
8:15 PM 54.9 °F - 32.0 °F 42% 29.96 in 10.0 mi ESE 3.5 mph - N/A   Clear
8:35 PM 56.5 °F - 32.2 °F 40% 29.96 in 10.0 mi SE 3.5 mph - N/A   Clear
8:55 PM 57.4 °F - 32.2 °F 39% 29.96 in 10.0 mi ESE 4.6 mph - N/A   Clear
9:15 PM 56.8 °F - 32.0 °F 39% 29.96 in 10.0 mi ESE 3.5 mph - N/A   Clear
9:35 PM 55.9 °F - 31.8 °F 40% 29.96 in 10.0 mi ESE 3.5 mph - N/A   Clear
9:55 PM 54.9 °F - 31.8 °F 42% 29.96 in 10.0 mi ESE 3.5 mph - N/A   Clear
10:15 PM 55.0 °F - 32.0 °F 42% 29.95 in 10.0 mi SE 4.6 mph - N/A   Clear
10:35 PM 55.9 °F - 32.5 °F 41% 29.95 in 10.0 mi SE 4.6 mph - N/A   Clear
10:55 PM 56.1 °F - 32.7 °F 41% 29.95 in 10.0 mi SE 3.5 mph - N/A   Clear
11:15 PM 55.4 °F - 33.6 °F 44% 29.94 in 10.0 mi SE 4.6 mph - N/A   Clear
11:35 PM 55.9 °F - 34.0 °F 44% 29.94 in 10.0 mi SSE 4.6 mph - N/A   Clear
11:55 PM 56.3 °F - 34.2 °F 43% 29.94 in 10.0 mi SE 4.6 mph - N/A   Clear